TimeEST,TemperatureF,Dew PointF,Humidity,Sea Level PressureIn,VisibilityMPH,Wind Direction,Wind SpeedMPH,Gust SpeedMPH,PrecipitationIn,Events,Conditions,WindDirDegrees,DateUTC
12:51 AM,32.0,23.0,69,30.42,10.0,NNW,3.5,-,N/A,,Overcast,330,2012-12-13 05:51:00
1:51 AM,33.1,23.0,66,30.42,10.0,North,4.6,-,N/A,,Overcast,350,2012-12-13 06:51:00
2:51 AM,30.9,24.1,76,30.43,10.0,Calm,Calm,-,N/A,,Overcast,0,2012-12-13 07:51:00
3:51 AM,30.0,24.1,79,30.42,10.0,Calm,Calm,-,N/A,,Overcast,0,2012-12-13 08:51:00
4:51 AM,28.9,24.1,82,30.43,10.0,West,3.5,-,N/A,,Overcast,280,2012-12-13 09:51:00
5:51 AM,30.0,25.0,82,30.45,10.0,Calm,Calm,-,N/A,,Overcast,0,2012-12-13 10:51:00
6:51 AM,30.2,24.8,80,30.43,10.0,North,3.5,-,N/A,,Mostly Cloudy,360,2012-12-13 11:51:00
7:51 AM,28.9,25.0,85,30.46,10.0,Calm,Calm,-,N/A,Fog,Patches of Fog,0,2012-12-13 12:51:00
8:51 AM,33.1,26.1,75,30.48,10.0,WNW,3.5,-,N/A,,Mostly Cloudy,290,2012-12-13 13:51:00
9:51 AM,39.9,25.0,55,30.45,10.0,NNE,6.9,-,N/A,,Mostly Cloudy,20,2012-12-13 14:51:00
10:51 AM,42.1,25.0,51,30.43,10.0,NNE,5.8,-,N/A,,Scattered Clouds,30,2012-12-13 15:51:00
11:51 AM,42.1,24.1,49,30.42,10.0,Calm,Calm,-,N/A,,Scattered Clouds,0,2012-12-13 16:51:00
12:51 PM,44.1,24.1,45,30.39,10.0,Calm,Calm,-,N/A,,Scattered Clouds,0,2012-12-13 17:51:00
1:51 PM,44.1,24.1,45,30.39,10.0,East,3.5,-,N/A,,Scattered Clouds,90,2012-12-13 18:51:00
2:51 PM,43.0,23.0,45,30.38,10.0,ESE,5.8,-,N/A,,Scattered Clouds,110,2012-12-13 19:51:00
3:51 PM,41.0,23.0,49,30.37,10.0,SSE,6.9,-,N/A,,Scattered Clouds,160,2012-12-13 20:51:00
4:51 PM,39.0,21.9,50,30.37,10.0,Calm,Calm,-,N/A,,Scattered Clouds,0,2012-12-13 21:51:00
7:51 PM,33.1,24.1,70,30.37,10.0,West,3.5,-,N/A,,Clear,280,2012-12-14 00:51:00
8:51 PM,30.9,24.1,76,30.35,10.0,West,4.6,-,N/A,,Clear,270,2012-12-14 01:51:00
9:51 PM,30.0,24.1,79,30.34,10.0,West,5.8,-,N/A,,Clear,270,2012-12-14 02:51:00
10:51 PM,28.9,23.0,78,30.32,10.0,WSW,3.5,-,N/A,,Clear,250,2012-12-14 03:51:00
11:51 PM,28.4,21.2,74,30.32,9.0,West,6.9,-,N/A,,Clear,270,2012-12-14 04:51:00